When you browse on this site, cookies collect data to enhance your experience and personalize the content and advertising you see.
Visit our Privacy Policy to learn more. By continuing to use the site, you agree to this use of cookies and data.
  • In United Kingdom
  • List of Countries
  • For 7 days
  • Water Temperature
  • Weather Map
  • Weather Widgets
  • user-avatar
    Login

    Hourly Weather Buzau

    Today, 16 September, Monday

    Time Temperature Precipitation Wind Pressure Humidity
    00:00 +17°C° 0 mm 2 mps 757 mmHg 54%
    01:00 +16°C° 0 mm 2 mps 757 mmHg 56%
    02:00 +16°C° 0 mm 3 mps 757 mmHg 60%
    03:00 +16°C° 0 mm 3 mps 756 mmHg 59%
    04:00 +16°C° 0 mm 3 mps 756 mmHg 59%
    05:00 +16°C° 0 mm 3 mps 756 mmHg 59%
    06:00 +17°C° 0 mm 3 mps 755 mmHg 53%
    07:00 +19°C° 0 mm 2 mps 755 mmHg 48%
    08:00 +21°C° 0 mm 2 mps 755 mmHg 42%
    09:00 +24°C° 0 mm 2 mps 755 mmHg 36%
    10:00 +27°C° 0 mm 2 mps 754 mmHg 30%
    11:00 +29°C° 0 mm 1 mps 754 mmHg 24%
    12:00 +30°C° 0 mm 1 mps 754 mmHg 22%
    13:00 +31°C° 0 mm 2 mps 753 mmHg 20%
    14:00 +32°C° 0 mm 2 mps 753 mmHg 18%
    15:00 +32°C° 0 mm 2 mps 752 mmHg 19%
    16:00 +31°C° 0 mm 2 mps 752 mmHg 20%
    17:00 +31°C° 0 mm 2 mps 752 mmHg 21%
    18:00 +28°C° 0 mm 2 mps 752 mmHg 25%
    19:00 +26°C° 0 mm 2 mps 752 mmHg 29%
    20:00 +23°C° 0 mm 1 mps 752 mmHg 33%
    21:00 +22°C° 0 mm 1 mps 752 mmHg 35%
    22:00 +21°C° 0 mm 1 mps 752 mmHg 37%
    23:00 +21°C° 0 mm 1 mps 752 mmHg 39%

    Tomorrow, 17 September, Tuesday

    Time Temperature Precipitation Wind Pressure Humidity
    00:00 +20°C° 0 mm 1 mps 752 mmHg 41%
    01:00 +20°C° 0 mm 1 mps 752 mmHg 42%
    02:00 +20°C° 0 mm 1 mps 752 mmHg 44%
    03:00 +19°C° 0 mm 1 mps 751 mmHg 46%
    04:00 +19°C° 0 mm 1 mps 751 mmHg 49%
    05:00 +18°C° 0 mm 1 mps 751 mmHg 51%
    06:00 +20°C° 0 mm 1 mps 751 mmHg 48%
    07:00 +22°C° 0 mm 1 mps 751 mmHg 44%
    08:00 +23°C° 0 mm 1 mps 751 mmHg 41%
    09:00 +25°C° 0 mm 1 mps 751 mmHg 36%
    10:00 +27°C° 0 mm 2 mps 751 mmHg 32%
    11:00 +29°C° 0 mm 2 mps 751 mmHg 27%
    12:00 +30°C° 0 mm 3 mps 750 mmHg 26%
    13:00 +31°C° 0 mm 3 mps 750 mmHg 24%
    14:00 +33°C° 0 mm 4 mps 750 mmHg 22%
    15:00 +33°C° 0 mm 4 mps 750 mmHg 24%
    16:00 +32°C° 0 mm 4 mps 749 mmHg 25%
    17:00 +32°C° 0 mm 4 mps 749 mmHg 26%
    18:00 +28°C° 0 mm 4 mps 749 mmHg 32%
    19:00 +26°C° 0 mm 3 mps 750 mmHg 37%
    20:00 +24°C° 0 mm 2 mps 750 mmHg 42%
    21:00 +23°C° 0 mm 2 mps 750 mmHg 44%
    22:00 +21°C° 0 mm 2 mps 750 mmHg 47%
    23:00 +22°C° 0 mm 1 mps 749 mmHg 49%

    Day after tomorrow, 18 September, Wednesday

    Time Temperature Precipitation Wind Pressure Humidity
    00:00 +21°C° 0 mm 1 mps 749 mmHg 50%
    01:00 +21°C° 0 mm 1 mps 749 mmHg 50%
    02:00 +21°C° 0 mm 1 mps 749 mmHg 51%
    03:00 +20°C° 0 mm 1 mps 749 mmHg 52%
    04:00 +19°C° 0 mm 2 mps 749 mmHg 54%
    05:00 +19°C° 0 mm 2 mps 749 mmHg 55%
    06:00 +20°C° 0 mm 3 mps 750 mmHg 53%
    07:00 +21°C° 0 mm 4 mps 750 mmHg 50%
    08:00 +22°C° 0 mm 5 mps 750 mmHg 47%
    09:00 +22°C° 0 mm 4 mps 751 mmHg 46%
    10:00 +22°C° 0 mm 4 mps 752 mmHg 44%
    11:00 +22°C° 0 mm 4 mps 752 mmHg 42%
    12:00 +20°C° 0.4 mm 4 mps 753 mmHg 49%
    13:00 +19°C° 0.4 mm 3 mps 753 mmHg 57%
    14:00 +17°C° 0.4 mm 3 mps 753 mmHg 64%
    15:00 +18°C° 0 mm 4 mps 754 mmHg 51%
    16:00 +20°C° 0 mm 5 mps 754 mmHg 38%
    17:00 +21°C° 0 mm 6 mps 754 mmHg 26%
    18:00 +19°C° 0 mm 5 mps 755 mmHg 27%
    19:00 +17°C° 0 mm 4 mps 756 mmHg 29%
    20:00 +15°C° 0 mm 4 mps 756 mmHg 31%
    21:00 +13°C° 0 mm 3 mps 757 mmHg 35%
    22:00 +12°C° 0 mm 3 mps 757 mmHg 39%
    23:00 +11°C° 0 mm 3 mps 758 mmHg 42%

    19 September, Thursday

    Time Temperature Precipitation Wind Pressure Humidity
    00:00 +10°C° 0 mm 3 mps 758 mmHg 46%
    01:00 +10°C° 0 mm 2 mps 758 mmHg 50%
    02:00 +9°C° 0 mm 2 mps 759 mmHg 54%
    03:00 +9°C° 0 mm 2 mps 759 mmHg 56%
    04:00 +8°C° 0 mm 2 mps 759 mmHg 58%
    05:00 +9°C° 0 mm 1 mps 759 mmHg 60%
    06:00 +10°C° 0 mm 1 mps 758 mmHg 55%
    07:00 +12°C° 0 mm 1 mps 758 mmHg 50%
    08:00 +13°C° 0 mm 1 mps 758 mmHg 45%
    09:00 +15°C° 0 mm 2 mps 758 mmHg 41%
    10:00 +17°C° 0 mm 2 mps 758 mmHg 36%
    11:00 +19°C° 0 mm 2 mps 758 mmHg 32%
    12:00 +20°C° 0 mm 3 mps 757 mmHg 31%
    13:00 +21°C° 0 mm 3 mps 756 mmHg 29%
    14:00 +22°C° 0 mm 3 mps 756 mmHg 28%
    15:00 +22°C° 0 mm 3 mps 755 mmHg 27%
    16:00 +23°C° 0 mm 2 mps 755 mmHg 27%
    17:00 +23°C° 0 mm 2 mps 755 mmHg 26%
    18:00 +20°C° 0 mm 2 mps 755 mmHg 32%
    19:00 +18°C° 0 mm 2 mps 756 mmHg 37%
    20:00 +16°C° 0 mm 2 mps 756 mmHg 42%
    21:00 +14°C° 0 mm 3 mps 756 mmHg 43%
    22:00 +13°C° 0 mm 5 mps 756 mmHg 44%
    23:00 +12°C° 0 mm 7 mps 757 mmHg 45%

    20 September, Friday

    Time Temperature Precipitation Wind Pressure Humidity
    00:00 +11°C° 0 mm 6 mps 757 mmHg 46%
    01:00 +11°C° 0 mm 6 mps 757 mmHg 46%
    02:00 +11°C° 0 mm 6 mps 757 mmHg 47%
    03:00 +10°C° 0 mm 5 mps 757 mmHg 47%
    04:00 +10°C° 0 mm 5 mps 757 mmHg 46%
    05:00 +11°C° 0 mm 4 mps 757 mmHg 46%
    06:00 +12°C° 0 mm 5 mps 757 mmHg 45%
    07:00 +13°C° 0 mm 5 mps 757 mmHg 44%
    08:00 +13°C° 0 mm 6 mps 758 mmHg 43%
    09:00 +15°C° 0 mm 6 mps 758 mmHg 39%
    10:00 +16°C° 0 mm 5 mps 758 mmHg 34%
    11:00 +17°C° 0 mm 5 mps 758 mmHg 29%
    12:00 +19°C° 0 mm 5 mps 758 mmHg 29%
    13:00 +19°C° 0 mm 5 mps 758 mmHg 29%
    14:00 +19°C° 0 mm 4 mps 757 mmHg 28%
    15:00 +19°C° 0 mm 4 mps 757 mmHg 28%
    16:00 +19°C° 0 mm 4 mps 758 mmHg 29%
    17:00 +18°C° 0 mm 4 mps 758 mmHg 29%
    18:00 +17°C° 0 mm 4 mps 758 mmHg 32%
    19:00 +14°C° 0 mm 4 mps 759 mmHg 34%
    20:00 +12°C° 0 mm 4 mps 760 mmHg 37%
    21:00 +11°C° 0 mm 4 mps 760 mmHg 40%
    22:00 +11°C° 0 mm 4 mps 761 mmHg 42%
    23:00 +10°C° 0 mm 4 mps 761 mmHg 44%

    21 September, Saturday

    Time Temperature Precipitation Wind Pressure Humidity
    00:00 +9°C° 0 mm 3 mps 761 mmHg 47%
    01:00 +8°C° 0 mm 2 mps 761 mmHg 49%
    02:00 +8°C° 0 mm 2 mps 762 mmHg 52%
    03:00 +7°C° 0 mm 2 mps 762 mmHg 52%
    04:00 +8°C° 0 mm 1 mps 762 mmHg 53%
    05:00 +8°C° 0 mm 1 mps 762 mmHg 54%
    06:00 +9°C° 0 mm 1 mps 762 mmHg 49%
    07:00 +11°C° 0 mm 1 mps 762 mmHg 44%
    08:00 +12°C° 0 mm 1 mps 762 mmHg 40%
    09:00 +14°C° 0 mm 2 mps 762 mmHg 35%
    10:00 +16°C° 0 mm 2 mps 762 mmHg 31%
    11:00 +17°C° 0 mm 3 mps 762 mmHg 27%
    12:00 +18°C° 0 mm 3 mps 761 mmHg 25%
    13:00 +19°C° 0 mm 3 mps 760 mmHg 23%
    14:00 +20°C° 0 mm 3 mps 760 mmHg 21%
    15:00 +20°C° 0 mm 3 mps 760 mmHg 22%
    16:00 +20°C° 0 mm 3 mps 759 mmHg 22%
    17:00 +20°C° 0 mm 3 mps 759 mmHg 23%
    18:00 +18°C° 0 mm 2 mps 759 mmHg 26%
    19:00 +16°C° 0 mm 2 mps 760 mmHg 30%
    20:00 +13°C° 0 mm 2 mps 760 mmHg 34%
    21:00 +13°C° 0 mm 2 mps 761 mmHg 36%
    22:00 +12°C° 0 mm 2 mps 761 mmHg 38%
    23:00 +12°C° 0 mm 2 mps 761 mmHg 40%
    Show more